标题 作者 点击 回复 回复时间
武汉装修宝装修网 一把躺椅rknc 24 3 09-24 07:41
装修宝装修网哪家好 一把躺椅rknc 20 3 09-24 07:41
家装网--装修宝装修网 一把躺椅rknc 37 5 09-24 07:38
装修宝装修网-你值得信赖的家装平台 一把躺椅rknc 35 5 09-24 07:32
有笑有泪。我的十年,勿喷! 燿炀 7648 2809 09-24 07:29
上午派了一个文案,下午就有十个人加我 佩祾擦 1403 378 09-24 06:54
我做微商,不为梦想,只为有尊严的活着 康志柳餐 617 59 09-24 06:53
做泰国代购五个多月,有时候想放弃,有时候被感动想坚持到底 灼生T 392 26 09-24 00:22
天草丹参保心茶(转载) thlbmc 75 2 09-24 00:19
一个新开淘宝店主的随手记录 girl20172017 142 9 09-23 23:15
光发热打底裤是今年的一种时尚,传澄告诉你它有何优点 若泉小鹿 81 11 09-23 23:13
手脚出汗多是脾虚吗 中医调理多汗方法 happy20070318 14 4 09-23 22:55
90后女孩做微商赚了1000万到底经历了什么 小小一良民 46 11 09-23 21:11
最快的产后瘦身方法 行者阿纳兰 50 4 09-23 20:43
坚持与放弃只在一念之间? 渐目连剧较 49 8 09-23 18:33
关于微商加人,我要说几点(转载) 水边锹 143 22 09-23 18:32
我刚做微商,还不知道怎么加人,有谁能告诉我一些方法呢? meshcici 166 14 09-23 18:32
这么暖的跨界,请多来一些好吗? fyfihol 17041 12 09-23 18:29
一代女皇怎么做推广做引流做地推呢? flawjwjw 375 19 09-23 18:14
谈一谈我是怎样用方法让别人主动加我的 狗仔队东22 149 17 09-23 18:12
一入微商深四海,没有客源怎么办?我的经历分享给你 kinetic你我他哈 139 14 09-23 18:11
那些衣服鞋子包包们…… 踮脚看阳光 231 33 09-23 18:06
聚米婧氏牙膏怎么样?做微商该如何定位 宝妈一枚2017 202 11 09-23 17:51
分享微商是怎么加人的?新手做微商是怎么做到加人不被拒绝的?(转载) 网吃盏 244 25 09-23 17:47
产后大肚子如何恢复 page_chan 67 7 09-23 17:37
产后大肚子如何恢复 lhilynvm 64 8 09-23 17:34
产后大肚子如何恢复 卫戍中华 103 14 09-23 17:31
产后瘦肚子最有效的方法 cui4501238 20 5 09-23 17:18
产后瘦肚子小妙招一天见效 funnypig2009 36 5 09-23 17:15
我来给大家分析下微商代理什么产品最好卖(转载) 小宁宁88 162 17 09-23 17:10
朋客网官网 朋客网推广有效果吗?被朋客骗了怎么办?(转载) 杨宏寿 709 15 09-23 17:09
农村学生,宝妈兼职微商做什么好,加入顶峰让你轻松月入过万 小左子小ac 113 19 09-23 16:41
b365酵素招代理 水果酵素招代理 酵素总代招代理 我在这里等你 b365酵素总代 161 12 09-23 16:37
脂老虎健康减脂技术,用数据告诉你你每天都在掉脂肪! 八角瓜 22 8 09-23 16:23
酵妃美酵素手工皂有什么功效(转载) 傻傻的等待angel 112 7 09-23 15:55
又木黑糖效果怎么样?手脚冰冷喝得好吗? qrfgunj2867 50 5 09-23 15:36
第一次发帖,卖闲置啦,两件江浙沪包邮,三件包送小礼物,大家来看看啦! sunnypinkpink 1876 172 09-23 15:32
成都配眼镜最好的地方 佘湛蓝毒驹 1504 68 09-23 15:30
钻戒与服装的搭配法则_钻石学堂_CRD克徕帝珠宝官方网(转载) crd447178304 92 5 09-23 15:17
社交电商未来的发展方向在哪里?(转载) soudianwang 96 8 09-23 14:48
自体脂肪的作用,一举两得 小豆21 56 8 09-23 14:11
如约而来静待花开你的美你做主 美约如心 18 4 09-23 17:42
装修宝装修网-权威的装修招标平台 一把躺椅rknc 39 3 09-23 13:33
教你如何辨别蝴蝶家丰胸中药粉的真假 ty_啊呀呀86 855 70 09-23 12:58
明天我去香港(9月24日,周日),有需要我带香港东西的友友吗? hotmail_0319 31 7 09-23 12:34
总有人喜欢你,顶级火欧泊界面 宝利定制 126 6 09-23 12:17
明天(9月24日)本人去香港采购,有需要买香港东西的朋友吗? hotmail_0319 21 6 09-23 12:13
做仿表也有几年的时间了.谈谈感触吧(转载) 老表名品 1075 4 09-23 12:12
直角袜是什么?是传澄才有的吗? 单身教授2017 32 6 09-23 11:53
最怕面膜含有铅汞,于是做了一个实验 单身教授2017 231 16 09-23 11:53
双十一在即,除了报名活动,还有一样很重要的事必须做。 忍起航 14 4 09-23 15:48
阳澄湖大闸蟹8只 2.3-2.6两 天猫原价149元领券后49元包邮 天猫白菜信誉第一 61 5 09-23 11:38
产后如何瘦肚子上的肉 dgzhhwang 118 6 09-23 11:32
养森瘦瘦塑身套是不是骗人的?真的有效吗? ty_闲人796 30963 35 09-23 10:52
为了怕宝宝踢被子你一夜要醒几次? 常久宝宝蚕丝被 12 4 09-23 10:46
装修宝装修网_专业装修网站 一把躺椅rknc 23 3 09-23 10:46
正茂印刷除了做汽车香片香夹还做哪些产品 正茂小玉 17 5 09-23 10:46
装修宝-装修网第一品牌 一把躺椅rknc 53 4 09-23 10:46
供应吐温20价格 科密欧化学试剂 生产厂家 _东莞市乔科化学有限公司(转载) kermel008 571 3 09-23 10:46
世上无难事,只要你坚持! 黎雅姿精品女装 28 6 09-23 10:45
求推荐口红色号!卡姿兰金致胶原轻雾感唇膏买几号色? 小甘曾55 25 7 09-23 10:34
卡姿兰超级萌熊限量版彩妆有哪些单品? fbqick1390909 22 7 09-23 10:33
酷乐家涂鸦墙膜——打造宝宝的梦幻涂鸦童年(转载) landskysafe 1683 249 09-23 10:17
淘宝过了维权期,还能不能维权?天猫欧雨琳旗舰店坑人行为 韩寒韩寒1 12 5 09-23 13:56
个人淘宝代购从海外采购货物如何安全 快速的运输到大陆?(转载) 75526604 274 25 09-23 09:13
致奋斗中的自己! 黎雅姿精品女装 66 7 09-23 09:02
装修-我要装修宝装修网 一把躺椅rknc 54 5 09-23 06:40
花红小黑膏,让你意想不到! zhp28 872 78 09-23 02:42
90后宝妈的微商创业分享,如何从全职太太零收入逆袭月薪万元 slzm4suya 63 11 09-23 00:14
一位宝妈兼职做微商,月收入两万多,还吵着说:不够 bardspx 3031 67 09-23 00:10
从月收入2000到月收入过万,一个宝妈的赚米秘诀,想学吗?不看后悔! lilliancai 1354 160 09-23 00:03
产后怎样瘦身 必胜6689 117 16 09-22 21:26
产后妈妈健康瘦身,穿出来的健康! FDzd小女人 145 9 09-22 21:25
穿瘦身衣为何易引起妇科病? 宫小俊瞻gj 61 7 09-22 21:24
吃了家芙纳蔬果片,懒人瘦身也有春天 Swallow4 49 5 09-22 21:22
产后发胖如何瘦身 wpysky 32 6 09-22 21:12
产后肥胖如何瘦身 令狐勇男 39 5 09-22 21:07
美国圣罗莎黄金时代 136斤→104斤完美瘦身,辣妈分享产后 丫头自然萌 61 11 09-22 21:05
产后如何快速瘦身 哎哟卧槽你逗比呀 36 7 09-22 21:04
产后怎么瘦身安全【心动时代酵母原液一个疗程可以瘦多少斤】效果怎么样 时间匆匆B 218 6 09-22 20:53